SCP
0 0 0 0 0 0 0 0 0 0 0 0 0 0 0 0 0 0 0 0 0 0 0 0 0 0 0 0 0 0 0 0 0 0 0 0 0 0 0 0 0 0 0 0 0 0 0
0 0 0 0 0 0 0 0 0 0 0 0 0 0 0 0 0 0 0 0 0 0 0 0 0 0 0 0 0 0 0 0 0 0 0 0 0 0 0 0 0 0 0 0 0 0 0
0 0 0 0 0 0 0 0 0 0 0 0 0 0 0 0 0 0 0 0 0 0 0 0 0 0 0 0 0 0 0 0 0 0 0 0 0 0 0 0 0 0 0 0 0 0 0
0 0 0 0 0 0 0 0 0 0 0 0 0 0 0 0 0 0 0 0 0 0 0 0 0 0 0 0 0 0 0 0 0 0 0 0 0 0 0 0 0 0 0 0 0 0 0
-0 0 0 0 0 0 0 0 0 0 0 0 0 0 0 0 0 0 0 0 0 0 0 0 0 0 0 0 0 0 0 0 0 0 0 0 0 0 0 0 0 0 0 0 0 0 0
-0 -0 0 0 0 0 0 0 0 0 0 0 0 0 0 0 0 0 0 0 0 0 0 0 0 0 0 0 0 0 0 0 0 0 0 0 0 0 0 0 0 0 0 0 0 0 0
-0 -0 -0 -0 0 0 0 0 0 0 0 0 0 0 0 0 0 0 0 0 0 -0 -0 0 0 0 0 0 0 0 0 0 0 0 0 0 0 0 0 0 0 0 0 0 0 0 0
0 0 0 0 0 0 0 0 0 0 0 0 0 0 0 0 0 0 0 -0 -0 -0 -0 0 0 0 -0 0 0 0 0 0 0 0 0 0 0 0 0 0 0 0 0 0 0 0 0
0 0 0 0 0 0 0 0 0 0 0 0 0 0 0 0 0 0 -0 -0 0 -0 -0 0 0 0 0 0 0 0 0 0 0 0 0 0 0 0 0 0 0 0 0 0 0 0 0
-0 0 0 0 0 0 0 0 0 -0 0 0 0 0 0 0 0 -0 -0 0 -0 -0 -0 -0 -0 -0 0 0 0 0 0 0 0 0 0 0 0 0 0 0 0 0 0 0 0 0 0
-0 -0 -0 -0 -0 -0 -0 -0 -0 -0 0 0 0 0 0 -0 -0 -0 -0 0 -0 0 -0 0 0 0 0 0 0 0 0 0 0 0 0 0 0 0 0 0 0 0 0 0 0 0 0
-0 -0 -0 -0 -0 -0 -0 -0 -0 -0 0 0 0 0 0 0 -0 -0 -0 -0 -0 -0 0 0 0 0 0 0 0 0 0 0 0 0 0 0 0 0 0 0 0 0 0 0 0 0 0
-0 -0 -0 -0 -0 -0 -0 -0 -0 -0 -0 -0 -0 -0 0 0 -0 0 -0 0 0 0 0 0 0 0 0 0 0 0 0 0 0 0 0 0 0 0 0 0 0 0 0 0 0 0 0
-0 -0 -0 -0 -0 -0 -0 -0 -0 -0 -0 -0 0 0 0 0 0 0 0 0 0 0 0 0 0 0 0 0 0 0 0 0 0 0 0 0 0 0 0 0 0 0 0 0 0 0 0
-0 -0 -0 -0 -0 -0 -0 -0 -0 -0 -0 -0 0 0 0 -0 0 0 0 0 0 0 0 0 0 0 0 0 0 0 0 0 0 0 0 0 0 0 0 0 0 0 0 0 0 0 0
-0 -0 -0 -0 -0 -0 -0 -0 -0 -0 -0 -0 0 0 0 -0 -0 0 0 0 0 0 0 0 0 0 0 0 0 0 0 0 0 0 0 0 0 0 0 0 0 0 0 0 0 0 0
-0 -0 -0 -0 -0 -0 -0 -0 -0 -0 -0 0 0 0 0 -0 0 0 0 0 0 0 0 0 0 0 0 0 0 0 0 0 0 0 0 0 0 0 0 0 0 0 0 0 0 0 0
-0 -0 -0 -0 -0 -0 -0 -0 -0 -0 -0 0 0 0 0 0 0 0 0 0 0 0 0 0 0 0 0 0 0 0 0 0 0 0 0 0 0 0 0 0 0 0 0 0 0 0 0
-0 -0 -0 -0 -0 -0 -0 -0 -0 -0 -0 0 0 0 0 0 0 0 0 0 0 0 0 0 0 0 0 0 0 0 0 0 0 0 0 0 0 0 0 0 0 0 0 0 0 0 0
-0 -0 -0 -0 -0 -0 -0 -0 -0 -0 -0 0 0 0 0 0 0 0 0 0 0 0 0 0 0 0 0 0 0 0 0 0 0 0 0 0 0 0 0 0 0 0 0 0 0 0 0
-0 -0 -0 -0 -0 -0 -0 -0 -0 -0 0 0 0 0 0 0 0 0 0 0 0 0 0 0 0 0 0 0 0 0 0 0 0 0 0 0 0 0 0 0 0 0 0 -0 0 0 0
0 0 0 -0 -0 -0 -0 -0 -0 -0 -0 0 0 0 0 0 0 0 0 0 0 0 0 0 0 0 0 0 0 0 0 0 0 0 0 0 0 0 0 -0 -0 0 -0 -0 0 0 0
0 0 0 0 0 0 0 0 -0 -0 -0 -0 -0 -0 -0 0 0 0 0 0 0 0 0 0 0 0 0 0 0 0 0 0 0 0 0 0 0 0 0 0 0 0 -0 0 0 0 0
0 0 0 0 0 0 0 0 0 0 0 -0 -0 -0 0 0 0 0 0 0 0 0 0 0 0 0 0 0 0 0 0 -0 -0 -0 -0 0 0 0 0 0 0 0 0 0 0 0 0
0 0 0 0 0 0 0 0 0 0 0 -0 0 0 0 0 0 0 0 0 0 0 0 0 0 0 0 0 0 0 0 0 0 -0 0 0 0 0 0 0 0 0 0 0 0 0 0
0 0 0 0 0 0 0 0 0 0 0 0 0 0 0 0 0 0 0 0 0 0 0 0 0 0 0 0 0 0 0 0 0 0 0 0 0 0 0 0 0 0 0 0 0 0 0
0 0 0 0 0 0 0 0 0 0 0 0 0 0 0 0 0 0 0 0 0 0 0 0 0 0 0 0 0 0 0 0 0 0 0 0 0 0 0 0 0 0 0 0 0 0 0
0 0 0 0 0 0 0 0 0 0 0 0 0 0 0 0 0 0 0 0 0 0 0 0 0 0 0 0 0 0 0 0 0 0 0 0 0 0 0 0 0 0 0 0 0 0 0
0 0 0 0 0 0 0 0 0 0 0 0 0 0 0 0 0 0 0 0 0 0 0 0 0 0 0 0 0 0 0 0 0 0 0 0 0 0 0 0 0 0 0 0 0 0 0
Wind_Speed_500mb
26 29 29 27 23 22 21 20 20 21 22 25 27 27 27 25 23 22 20 19 16 14 12 10 9 9 10 7 7 6 4 7 7 3 0 2 3 4 7 4 7 16 17 16 23 27 30
28 29 28 25 22 20 20 20 19 19 19 19 20 20 20 20 20 19 18 17 14 12 9 7 6 7 9 6 7 5 2 6 5 3 1 3 2 3 7 8 10 5 23 33 30 36 29
27 32 32 30 25 21 19 17 16 17 17 17 16 15 14 13 13 12 12 11 10 8 5 4 6 8 6 5 6 4 3 7 6 2 0 2 4 5 2 7 7 14 22 26 28 22 19
22 26 29 30 28 25 21 17 15 14 12 12 12 12 11 10 9 9 7 7 6 5 3 1 4 8 4 3 2 7 5 5 6 4 4 5 3 5 6 9 10 13 15 16 9 7 5
23 22 21 23 25 25 22 19 16 13 11 10 9 8 7 7 7 7 6 6 5 4 2 2 5 8 7 5 6 2 4 3 2 1 2 6 4 4 5 9 15 6 21 24 28 6 7
24 21 20 19 18 18 18 18 15 13 11 9 7 6 7 8 8 8 6 7 6 3 0 3 3 4 5 3 5 4 5 5 4 4 4 4 4 8 9 10 17 23 24 27 27 8 14
24 20 19 18 19 18 15 13 12 11 11 9 7 7 7 7 7 6 8 9 6 4 5 3 3 6 7 4 2 3 3 3 2 3 7 3 10 16 21 15 22 23 26 36 40 42 43
30 30 29 27 25 21 17 13 9 7 7 8 9 8 6 5 6 10 9 8 9 6 8 14 5 5 10 10 3 2 3 4 3 7 5 10 17 14 3 8 15 21 29 37 34 25 27
39 37 35 33 31 29 25 19 13 7 2 3 6 8 7 11 12 14 12 10 8 8 4 8 11 9 7 6 0 4 3 1 5 6 9 16 6 3 8 11 16 23 26 31 37 40 32
40 40 39 38 37 35 33 28 20 11 2 6 6 6 9 13 8 9 7 6 5 6 7 8 7 9 9 7 4 8 3 3 4 7 6 15 4 9 11 21 17 26 9 22 28 22 20
42 42 40 40 39 39 39 37 24 14 7 6 12 10 8 10 10 6 3 3 3 3 7 7 7 6 12 5 6 8 5 2 9 8 6 6 13 17 22 17 6 21 13 22 29 31 32
44 43 41 40 40 41 42 41 30 19 10 6 14 13 11 10 9 5 3 3 4 7 4 4 7 12 6 13 7 12 4 3 5 10 12 28 20 13 12 16 15 23 20 28 18 18 15
43 44 44 45 46 47 47 47 39 24 18 16 15 15 11 11 8 3 3 3 6 4 0 6 6 12 6 12 10 16 11 18 13 16 7 23 9 1 11 6 2 20 22 14 11 10 18
39 41 42 44 45 45 42 40 36 18 18 20 18 13 10 7 4 1 1 7 7 5 6 5 8 6 4 18 7 12 3 6 23 16 17 13 2 7 10 20 15 21 10 11 18 22 36
35 36 36 37 38 37 35 33 30 15 11 16 16 12 13 8 3 2 4 2 7 4 5 11 4 0 4 3 14 11 12 8 17 27 14 14 6 21 28 15 9 8 11 19 27 42 37
32 32 32 32 32 33 32 31 28 19 8 13 14 12 22 8 5 7 3 9 6 9 10 4 6 10 7 15 12 16 7 13 7 21 18 5 20 10 10 22 14 15 22 17 14 17 26
30 31 33 35 38 40 42 37 30 22 7 12 3 4 24 7 10 12 7 9 9 13 16 13 8 6 9 9 11 11 9 9 15 16 11 16 10 9 26 11 30 28 15 10 12 18 25
32 34 37 41 44 46 45 43 38 24 10 10 4 3 21 8 6 9 8 7 5 13 20 13 10 12 8 10 6 5 4 5 14 15 11 10 11 24 40 33 9 6 15 17 18 37 36
33 35 37 42 45 47 48 47 43 33 9 9 8 5 33 10 6 9 9 11 16 14 16 10 8 14 7 4 8 5 1 8 11 16 12 15 3 17 7 13 19 8 33 32 36 29 45
32 34 37 41 44 45 43 41 41 43 18 8 7 3 19 31 16 12 12 8 9 14 12 13 7 6 5 3 3 6 8 2 18 29 32 18 19 26 23 33 35 47 42 41 39 27 43
27 30 34 39 42 43 43 40 39 38 30 9 12 9 7 6 14 15 8 5 9 5 6 8 7 10 6 6 12 9 7 14 30 15 11 9 16 26 35 43 46 49 44 48 45 45 43
26 28 30 34 39 42 44 43 42 38 29 31 10 7 12 10 5 9 5 4 7 6 3 4 8 5 7 10 13 16 22 18 20 7 5 16 20 26 39 46 48 47 45 51 47 42 49
24 27 29 32 38 40 41 41 42 43 36 22 20 18 10 4 4 3 3 7 7 3 6 6 5 11 16 17 15 27 33 40 40 32 31 27 13 17 32 32 35 28 32 26 32 43 43
20 23 27 31 34 37 37 36 39 42 42 32 24 13 4 7 4 6 12 3 6 6 3 6 10 9 3 9 33 42 42 47 47 48 38 23 24 14 19 26 26 16 38 46 39 44 37
20 21 22 24 25 28 29 30 31 34 33 27 26 13 7 7 10 10 12 6 5 8 10 11 9 7 12 17 9 11 3 5 7 14 16 34 21 10 12 25 38 36 28 27 29 49 31
22 20 20 19 18 20 23 24 25 27 28 22 19 18 8 11 11 15 13 10 4 5 6 4 4 7 3 5 4 4 6 6 6 8 10 14 24 19 25 31 32 35 43 35 11 32 12
25 24 20 17 15 14 16 18 19 19 22 21 15 14 8 3 10 17 10 9 12 7 5 8 1 1 4 5 5 5 7 4 8 9 10 14 14 26 27 32 26 30 20 9 23 28 65
30 29 25 20 14 12 13 12 14 14 14 16 16 15 15 6 12 21 23 14 14 16 7 9 4 9 6 8 5 5 7 7 11 18 20 15 15 21 21 18 23 9 12 26 44 77 65
35 32 30 24 19 14 12 9 9 8 5 11 9 12 15 10 11 17 28 32 32 18 18 15 5 8 13 7 6 5 10 9 17 13 9 12 18 19 17 22 57 76 70 70 65 59 57
Wind_Direction_500mb
51 53 51 58 68 74 73 77 84 92 97 102 107 110 112 115 116 116 118 116 117 113 108 99 84 76 97 97 108 127 70 31 25 14 253 149 197 202 255 262 269 243 268 276 270 280 272
48 51 50 57 69 72 81 80 79 83 88 95 102 109 115 122 125 129 132 133 134 133 128 113 86 73 101 155 158 145 59 29 23 41 48 85 204 243 260 256 255 304 284 282 280 271 261
46 49 50 51 52 62 68 72 80 86 85 88 89 93 100 107 117 127 138 141 146 146 138 103 51 35 84 127 155 140 71 33 28 45 79 188 220 258 278 269 307 291 293 289 265 268 257
49 49 46 49 51 52 57 65 70 75 83 90 95 100 101 105 113 119 130 137 150 161 164 90 30 29 70 108 210 235 260 330 337 348 223 236 243 255 253 296 268 272 269 293 122 212 233
42 45 52 53 50 49 51 53 58 70 80 86 88 94 107 121 129 133 142 151 168 186 209 323 7 64 113 62 68 179 218 243 357 1 222 245 253 235 212 259 269 197 284 286 301 214 269
48 51 47 44 48 51 50 46 48 54 60 66 85 113 128 136 131 130 132 141 145 142 173 357 24 132 116 151 120 102 170 176 173 182 231 229 218 239 220 227 280 303 286 286 279 283 252
49 52 47 43 39 36 34 35 39 44 48 56 77 104 122 130 130 130 139 125 101 74 68 53 80 73 101 121 107 95 153 177 193 228 268 330 263 262 307 263 290 288 282 281 282 290 294
48 45 48 47 43 38 31 24 20 24 33 51 65 70 80 96 119 123 122 122 106 113 95 38 32 307 270 253 303 279 244 236 234 286 261 239 266 342 278 258 255 266 277 283 288 290 295
56 57 55 52 48 41 33 23 9 349 335 92 78 72 103 127 111 118 112 105 92 72 116 53 62 54 21 48 308 17 181 262 295 270 265 269 344 69 292 278 262 265 269 285 293 310 283
57 56 54 51 47 40 31 20 12 2 294 195 162 107 111 139 119 130 87 75 80 80 204 38 28 26 1 21 88 356 244 284 230 306 294 276 11 278 279 278 276 289 321 288 296 308 299
58 57 54 51 46 38 30 20 15 18 10 200 182 163 133 157 146 132 115 76 56 127 225 33 39 0 345 19 329 19 337 260 283 293 258 320 298 298 289 298 254 291 342 307 292 282 294
54 52 48 45 41 36 30 26 25 20 28 139 171 170 157 141 147 129 65 89 118 220 158 114 6 4 3 31 34 342 29 357 298 277 247 273 288 286 294 314 287 310 300 287 269 267 259
42 39 35 31 27 26 25 22 24 39 57 87 124 145 161 171 177 168 50 121 212 260 72 40 352 346 352 9 29 9 51 51 16 324 310 303 298 165 358 312 15 332 323 298 245 218 267
36 32 27 24 19 15 15 17 20 47 83 93 95 107 122 132 149 222 24 229 230 64 33 7 335 335 71 12 50 5 3 18 38 351 304 341 178 40 14 354 311 305 308 282 288 298 299
31 27 23 21 16 10 7 10 10 20 104 109 106 102 81 86 100 155 211 73 43 58 357 332 284 184 119 83 348 342 59 51 36 24 357 331 250 328 343 349 302 19 284 334 286 276 272
28 25 24 22 20 15 13 15 12 9 144 127 116 81 30 44 67 97 82 85 87 38 342 303 356 10 350 2 351 5 34 22 16 24 352 34 293 286 29 328 200 11 336 301 269 282 275
32 30 28 27 26 24 21 21 24 21 127 146 110 109 4 56 91 59 75 76 103 56 22 7 22 19 45 11 347 334 20 49 11 359 350 331 249 248 329 287 306 310 302 295 313 279 287
34 30 28 28 26 24 24 25 27 33 115 149 109 92 8 80 59 47 68 35 56 15 26 46 62 49 37 12 323 297 313 51 33 357 0 12 301 289 293 298 314 180 137 314 289 292 281
30 29 27 29 30 28 24 24 25 30 101 131 87 63 26 111 89 87 100 83 59 33 34 35 62 46 26 30 314 289 334 159 15 351 9 1 287 311 278 125 171 299 319 303 287 274 269
23 23 26 28 31 31 32 30 28 26 43 91 91 98 36 56 62 94 125 88 113 40 63 68 89 79 25 333 297 292 272 303 311 303 302 288 252 246 266 287 294 292 291 286 279 273 278
17 20 25 27 30 32 33 35 35 33 21 64 64 66 57 54 56 88 102 93 118 114 79 60 100 90 60 285 293 255 249 280 300 296 301 303 273 280 281 288 286 283 289 280 277 277 277
17 18 22 22 28 31 32 33 34 34 45 75 84 120 81 80 71 113 39 97 134 141 233 170 158 173 244 252 256 289 297 287 270 276 274 297 280 292 287 283 276 281 280 282 280 276 273
3 12 18 19 21 28 30 31 34 36 47 71 81 100 106 80 104 162 76 150 140 185 193 192 156 306 274 277 265 274 272 267 267 276 285 284 270 276 277 288 287 275 267 296 290 290 289
338 350 5 16 16 18 24 28 33 37 45 58 69 88 112 109 155 106 150 177 193 229 261 212 248 249 256 291 293 279 268 263 264 264 252 245 251 256 287 291 278 303 306 297 285 279 291
311 326 347 6 15 12 15 22 29 38 44 50 53 55 78 113 126 144 160 174 211 259 260 261 245 243 296 310 286 313 256 254 247 257 244 222 246 264 262 271 285 292 295 313 303 288 300
292 303 320 345 5 6 3 14 20 26 40 47 49 47 82 131 194 146 159 187 213 233 254 236 276 304 226 268 258 290 290 345 290 283 221 239 232 244 275 285 286 287 304 321 292 284 78
274 279 290 312 336 354 357 358 4 13 19 41 37 25 48 94 188 165 183 188 175 194 241 287 228 200 146 223 261 264 268 301 263 277 271 269 250 237 265 275 277 279 303 265 265 306 320
263 264 270 283 307 321 336 340 342 352 4 20 37 23 24 325 253 217 210 186 180 198 208 155 245 197 200 219 240 245 251 243 275 266 285 279 286 275 272 268 278 64 318 285 302 305 303
258 253 259 268 279 287 301 307 311 314 358 340 16 359 347 310 258 240 246 241 230 219 201 206 254 175 207 224 229 269 250 245 271 283 266 262 232 286 265 269 284 293 297 298 298 297 303
Wind_Speed_850mb
26 29 29 27 23 22 21 20 20 21 22 25 27 27 27 25 23 22 20 19 16 14 12 10 9 9 10 7 7 6 4 7 7 3 0 2 3 4 7 4 7 16 17 16 23 27 30
28 29 28 25 22 20 20 20 19 19 19 19 20 20 20 20 20 19 18 17 14 12 9 7 6 7 9 6 7 5 2 6 5 3 1 3 2 3 7 8 10 5 23 33 30 36 29
27 32 32 30 25 21 19 17 16 17 17 17 16 15 14 13 13 12 12 11 10 8 5 4 6 8 6 5 6 4 3 7 6 2 0 2 4 5 2 7 7 14 22 26 28 22 19
22 26 29 30 28 25 21 17 15 14 12 12 12 12 11 10 9 9 7 7 6 5 3 1 4 8 4 3 2 7 5 5 6 4 4 5 3 5 6 9 10 13 15 16 9 7 5
23 22 21 23 25 25 22 19 16 13 11 10 9 8 7 7 7 7 6 6 5 4 2 2 5 8 7 5 6 2 4 3 2 1 2 6 4 4 5 9 15 6 21 24 28 6 7
24 21 20 19 18 18 18 18 15 13 11 9 7 6 7 8 8 8 6 7 6 3 0 3 3 4 5 3 5 4 5 5 4 4 4 4 4 8 9 10 17 23 24 27 27 8 14
24 20 19 18 19 18 15 13 12 11 11 9 7 7 7 7 7 6 8 9 6 4 5 3 3 6 7 4 2 3 3 3 2 3 7 3 10 16 21 15 22 23 26 36 40 42 43
30 30 29 27 25 21 17 13 9 7 7 8 9 8 6 5 6 10 9 8 9 6 8 14 5 5 10 10 3 2 3 4 3 7 5 10 17 14 3 8 15 21 29 37 34 25 27
39 37 35 33 31 29 25 19 13 7 2 3 6 8 7 11 12 14 12 10 8 8 4 8 11 9 7 6 0 4 3 1 5 6 9 16 6 3 8 11 16 23 26 31 37 40 32
40 40 39 38 37 35 33 28 20 11 2 6 6 6 9 13 8 9 7 6 5 6 7 8 7 9 9 7 4 8 3 3 4 7 6 15 4 9 11 21 17 26 9 22 28 22 20
42 42 40 40 39 39 39 37 24 14 7 6 12 10 8 10 10 6 3 3 3 3 7 7 7 6 12 5 6 8 5 2 9 8 6 6 13 17 22 17 6 21 13 22 29 31 32
44 43 41 40 40 41 42 41 30 19 10 6 14 13 11 10 9 5 3 3 4 7 4 4 7 12 6 13 7 12 4 3 5 10 12 28 20 13 12 16 15 23 20 28 18 18 15
43 44 44 45 46 47 47 47 39 24 18 16 15 15 11 11 8 3 3 3 6 4 0 6 6 12 6 12 10 16 11 18 13 16 7 23 9 1 11 6 2 20 22 14 11 10 18
39 41 42 44 45 45 42 40 36 18 18 20 18 13 10 7 4 1 1 7 7 5 6 5 8 6 4 18 7 12 3 6 23 16 17 13 2 7 10 20 15 21 10 11 18 22 36
35 36 36 37 38 37 35 33 30 15 11 16 16 12 13 8 3 2 4 2 7 4 5 11 4 0 4 3 14 11 12 8 17 27 14 14 6 21 28 15 9 8 11 19 27 42 37
32 32 32 32 32 33 32 31 28 19 8 13 14 12 22 8 5 7 3 9 6 9 10 4 6 10 7 15 12 16 7 13 7 21 18 5 20 10 10 22 14 15 22 17 14 17 26
30 31 33 35 38 40 42 37 30 22 7 12 3 4 24 7 10 12 7 9 9 13 16 13 8 6 9 9 11 11 9 9 15 16 11 16 10 9 26 11 30 28 15 10 12 18 25
32 34 37 41 44 46 45 43 38 24 10 10 4 3 21 8 6 9 8 7 5 13 20 13 10 12 8 10 6 5 4 5 14 15 11 10 11 24 40 33 9 6 15 17 18 37 36
33 35 37 42 45 47 48 47 43 33 9 9 8 5 33 10 6 9 9 11 16 14 16 10 8 14 7 4 8 5 1 8 11 16 12 15 3 17 7 13 19 8 33 32 36 29 45
32 34 37 41 44 45 43 41 41 43 18 8 7 3 19 31 16 12 12 8 9 14 12 13 7 6 5 3 3 6 8 2 18 29 32 18 19 26 23 33 35 47 42 41 39 27 43
27 30 34 39 42 43 43 40 39 38 30 9 12 9 7 6 14 15 8 5 9 5 6 8 7 10 6 6 12 9 7 14 30 15 11 9 16 26 35 43 46 49 44 48 45 45 43
26 28 30 34 39 42 44 43 42 38 29 31 10 7 12 10 5 9 5 4 7 6 3 4 8 5 7 10 13 16 22 18 20 7 5 16 20 26 39 46 48 47 45 51 47 42 49
24 27 29 32 38 40 41 41 42 43 36 22 20 18 10 4 4 3 3 7 7 3 6 6 5 11 16 17 15 27 33 40 40 32 31 27 13 17 32 32 35 28 32 26 32 43 43
20 23 27 31 34 37 37 36 39 42 42 32 24 13 4 7 4 6 12 3 6 6 3 6 10 9 3 9 33 42 42 47 47 48 38 23 24 14 19 26 26 16 38 46 39 44 37
20 21 22 24 25 28 29 30 31 34 33 27 26 13 7 7 10 10 12 6 5 8 10 11 9 7 12 17 9 11 3 5 7 14 16 34 21 10 12 25 38 36 28 27 29 49 31
22 20 20 19 18 20 23 24 25 27 28 22 19 18 8 11 11 15 13 10 4 5 6 4 4 7 3 5 4 4 6 6 6 8 10 14 24 19 25 31 32 35 43 35 11 32 12
25 24 20 17 15 14 16 18 19 19 22 21 15 14 8 3 10 17 10 9 12 7 5 8 1 1 4 5 5 5 7 4 8 9 10 14 14 26 27 32 26 30 20 9 23 28 65
30 29 25 20 14 12 13 12 14 14 14 16 16 15 15 6 12 21 23 14 14 16 7 9 4 9 6 8 5 5 7 7 11 18 20 15 15 21 21 18 23 9 12 26 44 77 65
35 32 30 24 19 14 12 9 9 8 5 11 9 12 15 10 11 17 28 32 32 18 18 15 5 8 13 7 6 5 10 9 17 13 9 12 18 19 17 22 57 76 70 70 65 59 57
Wind_Direction_850mb
51 53 51 58 68 74 73 77 84 92 97 102 107 110 112 115 116 116 118 116 117 113 108 99 84 76 97 97 108 127 70 31 25 14 253 149 197 202 255 262 269 243 268 276 270 280 272
48 51 50 57 69 72 81 80 79 83 88 95 102 109 115 122 125 129 132 133 134 133 128 113 86 73 101 155 158 145 59 29 23 41 48 85 204 243 260 256 255 304 284 282 280 271 261
46 49 50 51 52 62 68 72 80 86 85 88 89 93 100 107 117 127 138 141 146 146 138 103 51 35 84 127 155 140 71 33 28 45 79 188 220 258 278 269 307 291 293 289 265 268 257
49 49 46 49 51 52 57 65 70 75 83 90 95 100 101 105 113 119 130 137 150 161 164 90 30 29 70 108 210 235 260 330 337 348 223 236 243 255 253 296 268 272 269 293 122 212 233
42 45 52 53 50 49 51 53 58 70 80 86 88 94 107 121 129 133 142 151 168 186 209 323 7 64 113 62 68 179 218 243 357 1 222 245 253 235 212 259 269 197 284 286 301 214 269
48 51 47 44 48 51 50 46 48 54 60 66 85 113 128 136 131 130 132 141 145 142 173 357 24 132 116 151 120 102 170 176 173 182 231 229 218 239 220 227 280 303 286 286 279 283 252
49 52 47 43 39 36 34 35 39 44 48 56 77 104 122 130 130 130 139 125 101 74 68 53 80 73 101 121 107 95 153 177 193 228 268 330 263 262 307 263 290 288 282 281 282 290 294
48 45 48 47 43 38 31 24 20 24 33 51 65 70 80 96 119 123 122 122 106 113 95 38 32 307 270 253 303 279 244 236 234 286 261 239 266 342 278 258 255 266 277 283 288 290 295
56 57 55 52 48 41 33 23 9 349 335 92 78 72 103 127 111 118 112 105 92 72 116 53 62 54 21 48 308 17 181 262 295 270 265 269 344 69 292 278 262 265 269 285 293 310 283
57 56 54 51 47 40 31 20 12 2 294 195 162 107 111 139 119 130 87 75 80 80 204 38 28 26 1 21 88 356 244 284 230 306 294 276 11 278 279 278 276 289 321 288 296 308 299
58 57 54 51 46 38 30 20 15 18 10 200 182 163 133 157 146 132 115 76 56 127 225 33 39 0 345 19 329 19 337 260 283 293 258 320 298 298 289 298 254 291 342 307 292 282 294
54 52 48 45 41 36 30 26 25 20 28 139 171 170 157 141 147 129 65 89 118 220 158 114 6 4 3 31 34 342 29 357 298 277 247 273 288 286 294 314 287 310 300 287 269 267 259
42 39 35 31 27 26 25 22 24 39 57 87 124 145 161 171 177 168 50 121 212 260 72 40 352 346 352 9 29 9 51 51 16 324 310 303 298 165 358 312 15 332 323 298 245 218 267
36 32 27 24 19 15 15 17 20 47 83 93 95 107 122 132 149 222 24 229 230 64 33 7 335 335 71 12 50 5 3 18 38 351 304 341 178 40 14 354 311 305 308 282 288 298 299
31 27 23 21 16 10 7 10 10 20 104 109 106 102 81 86 100 155 211 73 43 58 357 332 284 184 119 83 348 342 59 51 36 24 357 331 250 328 343 349 302 19 284 334 286 276 272
28 25 24 22 20 15 13 15 12 9 144 127 116 81 30 44 67 97 82 85 87 38 342 303 356 10 350 2 351 5 34 22 16 24 352 34 293 286 29 328 200 11 336 301 269 282 275
32 30 28 27 26 24 21 21 24 21 127 146 110 109 4 56 91 59 75 76 103 56 22 7 22 19 45 11 347 334 20 49 11 359 350 331 249 248 329 287 306 310 302 295 313 279 287
34 30 28 28 26 24 24 25 27 33 115 149 109 92 8 80 59 47 68 35 56 15 26 46 62 49 37 12 323 297 313 51 33 357 0 12 301 289 293 298 314 180 137 314 289 292 281
30 29 27 29 30 28 24 24 25 30 101 131 87 63 26 111 89 87 100 83 59 33 34 35 62 46 26 30 314 289 334 159 15 351 9 1 287 311 278 125 171 299 319 303 287 274 269
23 23 26 28 31 31 32 30 28 26 43 91 91 98 36 56 62 94 125 88 113 40 63 68 89 79 25 333 297 292 272 303 311 303 302 288 252 246 266 287 294 292 291 286 279 273 278
17 20 25 27 30 32 33 35 35 33 21 64 64 66 57 54 56 88 102 93 118 114 79 60 100 90 60 285 293 255 249 280 300 296 301 303 273 280 281 288 286 283 289 280 277 277 277
17 18 22 22 28 31 32 33 34 34 45 75 84 120 81 80 71 113 39 97 134 141 233 170 158 173 244 252 256 289 297 287 270 276 274 297 280 292 287 283 276 281 280 282 280 276 273
3 12 18 19 21 28 30 31 34 36 47 71 81 100 106 80 104 162 76 150 140 185 193 192 156 306 274 277 265 274 272 267 267 276 285 284 270 276 277 288 287 275 267 296 290 290 289
338 350 5 16 16 18 24 28 33 37 45 58 69 88 112 109 155 106 150 177 193 229 261 212 248 249 256 291 293 279 268 263 264 264 252 245 251 256 287 291 278 303 306 297 285 279 291
311 326 347 6 15 12 15 22 29 38 44 50 53 55 78 113 126 144 160 174 211 259 260 261 245 243 296 310 286 313 256 254 247 257 244 222 246 264 262 271 285 292 295 313 303 288 300
292 303 320 345 5 6 3 14 20 26 40 47 49 47 82 131 194 146 159 187 213 233 254 236 276 304 226 268 258 290 290 345 290 283 221 239 232 244 275 285 286 287 304 321 292 284 78
274 279 290 312 336 354 357 358 4 13 19 41 37 25 48 94 188 165 183 188 175 194 241 287 228 200 146 223 261 264 268 301 263 277 271 269 250 237 265 275 277 279 303 265 265 306 320
263 264 270 283 307 321 336 340 342 352 4 20 37 23 24 325 253 217 210 186 180 198 208 155 245 197 200 219 240 245 251 243 275 266 285 279 286 275 272 268 278 64 318 285 302 305 303
258 253 259 268 279 287 301 307 311 314 358 340 16 359 347 310 258 240 246 241 230 219 201 206 254 175 207 224 229 269 250 245 271 283 266 262 232 286 265 269 284 293 297 298 298 297 303